Weather History for Fountain Dale, PA

Change the Weather History Date:

Friday, February 15, 2013

  Actual Average (KHGR) Record (KHGR)
Temperature  
Mean Temperature 42 °F -  
Max Temperature 51 °F 41 °F 57 °F (2006)
Min Temperature 32 °F 25 °F 9 °F (2007)
Degree Days  
Heating Degree Days 24    
Moisture  
Dew Point 30 °F    
Average Humidity 70    
Maximum Humidity 86    
Minimum Humidity 43    
Precipitation  
Precipitation 0.12 in - - ()
Sea Level Pressure  
Sea Level Pressure 29.98 in    
Wind  
Wind Speed 3 mph (West)    
Max Wind Speed 10 mph    
Max Gust Speed 16 mph    
Visibility 9 miles    
Events Rain    
Averages and records for this station are not official NWS values.
T = Trace of Precipitation, MM = Missing Value Source: NWS Daily Summary

Daily Weather History Graph

Daily Weather History Graph

Search for Another Location

Airport:

Trip Planner

Search our weather history database for the weather conditions in past years. The results will help you decide how hot, cold, wet, or windy it might be!

Date:

Astronomy

Feb. 15, 2013 Rise Set
Actual Time 7:01 AM EST 5:46 PM EST
Civil Twilight 6:34 AM EST 6:13 PM EST
Nautical Twilight 6:02 AM EST 6:45 PM EST
Astronomical Twilight 5:31 AM EST 7:16 PM EST
Moon 9:37 AM EST (2/15) 11:44 PM EST (2/15)
Length of Visible Light 11h 39m
Length of Day
10h 44m
Waxing Crescent, 30% of the Moon is Illuminated
Feb 15
Waxing Crescent
Feb 17
First Quarter
Feb 25
Full
Mar 4
Last Quarter
Mar 11
New

Hourly Weather History & Observations

Time (EST) Temp. Windchill Dew Point Humidity Pressure Visibility Wind Dir Wind Speed Gust Speed Precip Events Conditions
12:53 AM 34.0 °F - 26.1 °F 73% 29.97 in 10.0 mi Calm Calm - N/A   Clear
1:53 AM 36.0 °F 33.3 °F 26.1 °F 67% 29.96 in 10.0 mi Variable 3.5 mph - N/A   Mostly Cloudy
4:53 AM 32.0 °F - 26.1 °F 79% 29.97 in 10.0 mi Calm Calm - N/A   Clear
5:53 AM 33.1 °F - 25.0 °F 72% 29.98 in 10.0 mi Calm Calm - N/A   Clear
7:53 AM 32.0 °F - 25.0 °F 75% 30.01 in 10.0 mi Calm Calm - N/A   Clear
8:53 AM 39.9 °F - 28.9 °F 65% 30.02 in 10.0 mi Calm Calm - N/A   Clear
9:53 AM 46.9 °F - 30.9 °F 54% 30.01 in 10.0 mi Variable 4.6 mph - N/A   Clear
10:53 AM 48.9 °F - 30.9 °F 50% 30.01 in 10.0 mi West 9.2 mph 16.1 mph N/A   Clear
11:53 AM 50.0 °F - 32.0 °F 50% 29.98 in 10.0 mi WNW 10.4 mph 16.1 mph N/A   Clear
12:53 PM 48.9 °F - 30.9 °F 50% 29.97 in 10.0 mi Variable 5.8 mph - N/A   Mostly Cloudy
1:53 PM 48.9 °F - 30.9 °F 50% 29.96 in 10.0 mi WSW 5.8 mph - N/A   Mostly Cloudy
2:53 PM 51.1 °F - 28.9 °F 43% 29.94 in 10.0 mi Variable 4.6 mph - N/A   Overcast
3:53 PM 46.9 °F - 30.9 °F 54% 29.95 in 10.0 mi West 8.1 mph - N/A   Overcast
4:53 PM 39.9 °F 35.8 °F 33.1 °F 77% 29.99 in 9.0 mi Variable 5.8 mph - N/A   Overcast
5:53 PM 39.0 °F - 34.0 °F 82% 29.98 in 9.0 mi Calm Calm - 0.02 in   Overcast
6:27 PM 39.2 °F 34.2 °F 33.8 °F 81% 29.94 in 10.0 mi West 6.9 mph - N/A   Overcast
6:53 PM 37.9 °F 34.4 °F 33.1 °F 83% 29.99 in 5.0 mi Variable 4.6 mph - 0.01 in Rain Light Rain
7:53 PM 36.0 °F - 32.0 °F 86% 30.01 in 5.0 mi Calm Calm - 0.06 in   Overcast
8:53 PM 36.0 °F - 32.0 °F 86% 30.01 in 7.0 mi Calm Calm - 0.03 in   Overcast
9:58 PM 37.4 °F - 32.0 °F 81% 29.97 in 8.0 mi Calm Calm - N/A   Overcast
10:53 PM 37.0 °F - 33.1 °F 86% 30.00 in 7.0 mi Calm Calm - N/A   Overcast
11:53 PM 36.0 °F - 32.0 °F 86% 29.98 in 6.0 mi Calm Calm - N/A   Mostly Cloudy